Time,TemperatureF,DewpointF,PressureIn,WindDirection,WindDirectionDegrees,WindSpeedMPH,WindSpeedGustMPH,Humidity,HourlyPrecipIn,Conditions,Clouds,dailyrainin,SoftwareType,DateUTC
2013-06-16 00:02:00,68.2,60.7,30.02,SE,125,3.0,6.0,77,0.00,,,0.00,Wunderground v.1.15,2013-06-16 05:02:00,
2013-06-16 00:07:00,68.2,60.7,30.02,South,173,4.0,10.0,77,0.00,,,0.00,Wunderground v.1.15,2013-06-16 05:07:00,
2013-06-16 00:12:00,68.2,60.7,30.02,SSE,159,2.0,5.0,77,0.00,,,0.00,Wunderground v.1.15,2013-06-16 05:12:00,
2013-06-16 00:17:00,68.2,60.3,30.01,SSE,163,3.0,6.0,76,0.00,,,0.00,Wunderground v.1.15,2013-06-16 05:17:00,
2013-06-16 00:22:00,68.4,60.5,30.02,ESE,107,3.0,6.0,76,0.00,,,0.00,Wunderground v.1.15,2013-06-16 05:22:00,
2013-06-16 00:27:00,68.6,60.4,30.01,South,174,3.0,7.0,75,0.00,,,0.00,Wunderground v.1.15,2013-06-16 05:27:00,
2013-06-16 00:32:00,68.6,60.4,30.01,SE,138,2.0,8.0,75,0.00,,,0.00,Wunderground v.1.15,2013-06-16 05:32:00,
2013-06-16 00:38:00,68.7,60.5,30.01,ESE,109,1.0,8.0,75,0.00,,,0.00,Wunderground v.1.15,2013-06-16 05:38:00,
2013-06-16 00:43:00,68.7,60.5,30.01,SE,133,3.0,6.0,75,0.00,,,0.00,Wunderground v.1.15,2013-06-16 05:43:00,
2013-06-16 00:48:00,68.7,60.5,30.01,SSW,211,3.0,6.0,75,0.00,,,0.00,Wunderground v.1.15,2013-06-16 05:48:00,
2013-06-16 00:53:00,68.6,60.4,30.01,ENE,71,3.0,8.0,75,0.00,,,0.00,Wunderground v.1.15,2013-06-16 05:53:00,
2013-06-16 00:58:00,68.6,60.4,30.01,SW,215,2.0,10.0,75,0.00,,,0.00,Wunderground v.1.15,2013-06-16 05:58:00,
2013-06-16 01:03:00,68.5,59.9,30.01,SE,130,2.0,7.0,74,0.00,,,0.00,Wunderground v.1.15,2013-06-16 06:03:00,
2013-06-16 01:08:00,68.5,59.9,30.01,SSW,207,3.0,7.0,74,0.00,,,0.00,Wunderground v.1.15,2013-06-16 06:08:00,
2013-06-16 01:13:00,68.5,59.9,30.01,SE,142,5.0,5.0,74,0.00,,,0.00,Wunderground v.1.15,2013-06-16 06:13:00,
2013-06-16 01:18:00,68.5,59.9,30.01,ESE,105,3.0,7.0,74,0.00,,,0.00,Wunderground v.1.15,2013-06-16 06:18:00,
2013-06-16 01:23:00,68.6,59.6,30.01,West,263,0.0,5.0,73,0.00,,,0.00,Wunderground v.1.15,2013-06-16 06:23:00,
2013-06-16 01:28:00,68.7,60.1,30.01,SW,219,1.0,6.0,74,0.00,,,0.00,Wunderground v.1.15,2013-06-16 06:28:00,
2013-06-16 01:33:00,68.8,60.2,30.01,South,179,1.0,6.0,74,0.00,,,0.00,Wunderground v.1.15,2013-06-16 06:33:00,
2013-06-16 01:38:00,68.6,60.4,30.00,ENE,74,2.0,6.0,75,0.00,,,0.00,Wunderground v.1.15,2013-06-16 06:38:00,
2013-06-16 01:43:00,68.5,60.3,30.00,ESE,103,3.0,5.0,75,0.00,,,0.00,Wunderground v.1.15,2013-06-16 06:43:00,
2013-06-16 01:48:00,68.3,60.1,30.00,SE,127,2.0,8.0,75,0.00,,,0.00,Wunderground v.1.15,2013-06-16 06:48:00,
2013-06-16 01:53:00,68.1,60.2,30.00,SE,146,3.0,7.0,76,0.00,,,0.00,Wunderground v.1.15,2013-06-16 06:53:00,
2013-06-16 01:58:00,68.0,60.2,30.00,SE,125,0.0,7.0,76,0.00,,,0.00,Wunderground v.1.15,2013-06-16 06:58:00,
2013-06-16 02:04:00,67.9,60.1,30.00,SE,126,5.0,8.0,76,0.00,,,0.00,Wunderground v.1.15,2013-06-16 07:04:00,
2013-06-16 02:09:00,67.9,60.1,30.00,SE,131,0.0,8.0,76,0.00,,,0.00,Wunderground v.1.15,2013-06-16 07:09:00,
2013-06-16 02:15:00,67.9,60.1,30.00,SSE,149,2.0,4.0,76,0.00,,,0.00,Wunderground v.1.15,2013-06-16 07:15:00,
2013-06-16 02:20:00,68.1,60.2,30.00,SSW,207,1.0,2.0,76,0.00,,,0.00,Wunderground v.1.15,2013-06-16 07:20:00,
2013-06-16 02:25:00,68.1,60.2,30.00,South,183,3.0,3.0,76,0.00,,,0.00,Wunderground v.1.15,2013-06-16 07:25:00,
2013-06-16 02:31:00,68.1,60.2,30.00,SE,138,4.0,4.0,76,0.00,,,0.00,Wunderground v.1.15,2013-06-16 07:31:00,
2013-06-16 02:37:00,68.1,60.2,30.00,SE,134,1.0,4.0,76,0.00,,,0.00,Wunderground v.1.15,2013-06-16 07:37:00,
2013-06-16 02:42:00,67.9,60.1,30.00,SSE,157,1.0,3.0,76,0.00,,,0.00,Wunderground v.1.15,2013-06-16 07:42:00,
2013-06-16 02:48:00,67.9,60.1,30.00,SE,129,0.0,3.0,76,0.00,,,0.00,Wunderground v.1.15,2013-06-16 07:48:00,
2013-06-16 02:53:00,67.7,59.9,30.00,SSW,204,0.0,2.0,76,0.00,,,0.00,Wunderground v.1.15,2013-06-16 07:53:00,
2013-06-16 02:59:00,68.1,59.9,30.00,SW,229,4.0,5.0,75,0.00,,,0.00,Wunderground v.1.15,2013-06-16 07:59:00,
2013-06-16 03:05:00,68.4,59.8,30.00,SW,223,1.0,3.0,74,0.00,,,0.00,Wunderground v.1.15,2013-06-16 08:05:00,
2013-06-16 03:10:00,68.5,59.9,30.00,WSW,257,3.0,3.0,74,0.00,,,0.00,Wunderground v.1.15,2013-06-16 08:10:00,
2013-06-16 03:16:00,68.5,59.9,30.00,SW,220,3.0,4.0,74,0.00,,,0.00,Wunderground v.1.15,2013-06-16 08:16:00,
2013-06-16 03:21:00,68.5,59.9,30.00,SE,138,0.0,3.0,74,0.00,,,0.00,Wunderground v.1.15,2013-06-16 08:21:00,
2013-06-16 03:27:00,68.2,60.0,30.01,South,186,5.0,6.0,75,0.00,,,0.00,Wunderground v.1.15,2013-06-16 08:27:00,
2013-06-16 03:32:00,68.0,59.8,30.01,South,182,1.0,6.0,75,0.00,,,0.00,Wunderground v.1.15,2013-06-16 08:32:00,
2013-06-16 03:38:00,68.0,59.8,30.01,SSW,209,1.0,6.0,75,0.00,,,0.00,Wunderground v.1.15,2013-06-16 08:38:00,
2013-06-16 03:44:00,68.0,59.8,30.01,South,175,3.0,4.0,75,0.00,,,0.00,Wunderground v.1.15,2013-06-16 08:44:00,
2013-06-16 03:49:00,68.0,59.8,30.01,SW,227,1.0,5.0,75,0.00,,,0.00,Wunderground v.1.15,2013-06-16 08:49:00,
2013-06-16 03:55:00,67.9,59.7,30.01,SSW,208,4.0,9.0,75,0.00,,,0.00,Wunderground v.1.15,2013-06-16 08:55:00,
2013-06-16 04:00:00,67.7,59.9,30.01,WSW,240,4.0,4.0,76,0.00,,,0.00,Wunderground v.1.15,2013-06-16 09:00:00,
2013-06-16 04:05:00,67.6,59.8,30.01,SSE,159,1.0,8.0,76,0.00,,,0.00,Wunderground v.1.15,2013-06-16 09:05:00,
2013-06-16 04:10:00,67.4,59.9,30.01,SSW,192,6.0,6.0,77,0.00,,,0.00,Wunderground v.1.15,2013-06-16 09:10:00,
2013-06-16 04:15:00,67.2,59.7,30.01,SSE,167,3.0,7.0,77,0.00,,,0.00,Wunderground v.1.15,2013-06-16 09:15:00,
2013-06-16 04:20:00,67.2,59.4,30.01,SE,144,4.0,5.0,76,0.00,,,0.00,Wunderground v.1.15,2013-06-16 09:20:00,
2013-06-16 04:25:00,67.2,59.4,30.01,SE,138,4.0,6.0,76,0.00,,,0.00,Wunderground v.1.15,2013-06-16 09:25:00,
2013-06-16 04:30:00,67.2,59.4,30.01,ESE,121,2.0,4.0,76,0.00,,,0.00,Wunderground v.1.15,2013-06-16 09:30:00,
2013-06-16 04:35:00,67.2,59.4,30.01,SE,140,2.0,7.0,76,0.00,,,0.00,Wunderground v.1.15,2013-06-16 09:35:00,
2013-06-16 04:40:00,67.3,59.1,30.02,East,100,1.0,5.0,75,0.00,,,0.00,Wunderground v.1.15,2013-06-16 09:40:00,
2013-06-16 04:45:00,67.6,59.0,30.02,South,182,3.0,9.0,74,0.00,,,0.00,Wunderground v.1.15,2013-06-16 09:45:00,
2013-06-16 04:50:00,68.0,59.8,30.02,SE,135,2.0,5.0,75,0.00,,,0.00,Wunderground v.1.15,2013-06-16 09:50:00,
2013-06-16 04:55:00,68.0,59.4,30.02,SSW,193,2.0,9.0,74,0.00,,,0.00,Wunderground v.1.15,2013-06-16 09:55:00,
2013-06-16 05:00:00,68.1,59.5,30.02,WSW,257,4.0,5.0,74,0.00,,,0.00,Wunderground v.1.15,2013-06-16 10:00:00,
2013-06-16 05:05:00,68.2,59.2,30.02,SW,232,1.0,6.0,73,0.00,,,0.00,Wunderground v.1.15,2013-06-16 10:05:00,
2013-06-16 05:10:00,68.5,59.1,30.02,SW,225,8.0,8.0,72,0.00,,,0.00,Wunderground v.1.15,2013-06-16 10:10:00,
2013-06-16 05:15:00,68.8,59.4,30.02,SE,144,0.0,8.0,72,0.00,,,0.00,Wunderground v.1.15,2013-06-16 10:15:00,
2013-06-16 05:21:00,68.7,59.7,30.03,SSW,202,0.0,2.0,73,0.00,,,0.00,Wunderground v.1.15,2013-06-16 10:21:00,
2013-06-16 05:26:00,68.7,59.3,30.03,South,184,1.0,8.0,72,0.00,,,0.00,Wunderground v.1.15,2013-06-16 10:26:00,
2013-06-16 05:31:00,68.8,59.0,30.03,SE,130,3.0,3.0,71,0.00,,,0.00,Wunderground v.1.15,2013-06-16 10:31:00,
2013-06-16 05:36:00,68.9,59.1,30.03,South,172,1.0,8.0,71,0.00,,,0.00,Wunderground v.1.15,2013-06-16 10:36:00,
2013-06-16 05:41:00,69.0,59.2,30.03,SSW,193,2.0,9.0,71,0.00,,,0.00,Wunderground v.1.15,2013-06-16 10:41:00,
2013-06-16 05:46:00,69.3,59.1,30.03,South,171,4.0,9.0,70,0.00,,,0.00,Wunderground v.1.15,2013-06-16 10:46:00,
2013-06-16 05:52:00,69.5,59.3,30.03,SSW,212,4.0,7.0,70,0.00,,,0.00,Wunderground v.1.15,2013-06-16 10:52:00,
2013-06-16 05:57:00,69.5,59.3,30.03,ESE,103,5.0,9.0,70,0.00,,,0.00,Wunderground v.1.15,2013-06-16 10:57:00,
2013-06-16 06:02:00,69.4,59.2,30.03,ESE,103,3.0,7.0,70,0.00,,,0.00,Wunderground v.1.15,2013-06-16 11:02:00,
2013-06-16 06:07:00,69.2,59.0,30.03,South,181,0.0,9.0,70,0.00,,,0.00,Wunderground v.1.15,2013-06-16 11:07:00,
2013-06-16 06:12:00,69.2,59.4,30.03,SE,141,1.0,7.0,71,0.00,,,0.00,Wunderground v.1.15,2013-06-16 11:12:00,
2013-06-16 06:17:00,69.1,59.3,30.03,SSW,192,3.0,8.0,71,0.00,,,0.00,Wunderground v.1.15,2013-06-16 11:17:00,
2013-06-16 06:22:00,69.0,59.6,30.03,SE,128,4.0,6.0,72,0.00,,,0.00,Wunderground v.1.15,2013-06-16 11:22:00,
2013-06-16 06:27:00,68.8,59.4,30.03,South,182,6.0,8.0,72,0.00,,,0.00,Wunderground v.1.15,2013-06-16 11:27:00,
2013-06-16 06:32:00,68.6,59.2,30.03,NE,56,0.0,7.0,72,0.00,,,0.00,Wunderground v.1.15,2013-06-16 11:32:00,
2013-06-16 06:37:00,68.5,59.1,30.03,SE,142,2.0,8.0,72,0.00,,,0.00,Wunderground v.1.15,2013-06-16 11:37:00,
2013-06-16 06:42:00,68.5,59.5,30.04,SSW,211,0.0,5.0,73,0.00,,,0.00,Wunderground v.1.15,2013-06-16 11:42:00,
2013-06-16 06:47:00,68.5,59.5,30.04,NW,311,0.0,8.0,73,0.00,,,0.00,Wunderground v.1.15,2013-06-16 11:47:00,
2013-06-16 06:52:00,68.7,59.7,30.04,SSE,165,2.0,7.0,73,0.00,,,0.00,Wunderground v.1.15,2013-06-16 11:52:00,
2013-06-16 06:57:00,69.0,60.0,30.04,South,188,0.0,8.0,73,0.00,,,0.00,Wunderground v.1.15,2013-06-16 11:57:00,
2013-06-16 07:02:00,69.4,60.0,30.04,SSW,202,3.0,7.0,72,0.00,,,0.00,Wunderground v.1.15,2013-06-16 12:02:00,
2013-06-16 07:07:00,69.8,60.4,30.04,WSW,241,5.0,9.0,72,0.00,,,0.00,Wunderground v.1.15,2013-06-16 12:07:00,
2013-06-16 07:12:00,70.1,60.7,30.04,SE,140,3.0,5.0,72,0.00,,,0.00,Wunderground v.1.15,2013-06-16 12:12:00,
2013-06-16 07:17:00,70.2,61.1,30.04,WSW,250,1.0,6.0,73,0.00,,,0.00,Wunderground v.1.15,2013-06-16 12:17:00,
2013-06-16 07:22:00,70.3,61.6,30.03,SSE,150,3.0,3.0,74,0.00,,,0.00,Wunderground v.1.15,2013-06-16 12:22:00,
2013-06-16 07:27:00,70.2,61.1,30.04,SSW,193,1.0,5.0,73,0.00,,,0.00,Wunderground v.1.15,2013-06-16 12:27:00,
2013-06-16 07:32:00,70.2,61.1,30.04,South,180,1.0,4.0,73,0.00,,,0.00,Wunderground v.1.15,2013-06-16 12:32:00,
2013-06-16 07:37:00,70.3,61.6,30.04,SW,235,4.0,4.0,74,0.00,,,0.00,Wunderground v.1.15,2013-06-16 12:37:00,
2013-06-16 07:42:00,70.3,62.0,30.04,SSE,167,4.0,6.0,75,0.00,,,0.00,Wunderground v.1.15,2013-06-16 12:42:00,
2013-06-16 07:47:00,70.3,61.6,30.04,SE,142,0.0,6.0,74,0.00,,,0.00,Wunderground v.1.15,2013-06-16 12:47:00,
2013-06-16 07:52:00,70.2,61.9,30.04,SW,216,0.0,5.0,75,0.00,,,0.00,Wunderground v.1.15,2013-06-16 12:52:00,
2013-06-16 07:57:00,70.1,62.2,30.04,SE,130,2.0,5.0,76,0.00,,,0.00,Wunderground v.1.15,2013-06-16 12:57:00,
2013-06-16 08:02:00,70.0,61.7,30.05,SSE,154,3.0,5.0,75,0.00,,,0.00,Wunderground v.1.15,2013-06-16 13:02:00,
2013-06-16 08:08:00,70.0,62.1,30.05,South,189,2.0,5.0,76,0.00,,,0.00,Wunderground v.1.15,2013-06-16 13:08:00,
2013-06-16 08:13:00,70.0,62.1,30.05,West,263,0.0,3.0,76,0.00,,,0.00,Wunderground v.1.15,2013-06-16 13:13:00,
2013-06-16 08:18:00,70.2,62.3,30.05,SSE,163,1.0,6.0,76,0.00,,,0.00,Wunderground v.1.15,2013-06-16 13:18:00,
2013-06-16 08:23:00,70.3,62.0,30.05,SSW,209,2.0,3.0,75,0.00,,,0.00,Wunderground v.1.15,2013-06-16 13:23:00,
2013-06-16 08:28:00,70.6,62.3,30.05,SSE,154,0.0,6.0,75,0.00,,,0.00,Wunderground v.1.15,2013-06-16 13:28:00,
2013-06-16 08:33:00,70.9,62.2,30.05,ESE,113,0.0,5.0,74,0.00,,,0.00,Wunderground v.1.15,2013-06-16 13:33:00,
2013-06-16 08:38:00,71.1,62.4,30.05,SW,223,0.0,5.0,74,0.00,,,0.00,Wunderground v.1.15,2013-06-16 13:38:00,
2013-06-16 08:43:00,71.3,63.0,30.05,SW,220,2.0,2.0,75,0.00,,,0.00,Wunderground v.1.15,2013-06-16 13:43:00,
2013-06-16 08:48:00,71.5,62.8,30.05,SW,232,0.0,5.0,74,0.00,,,0.00,Wunderground v.1.15,2013-06-16 13:48:00,
2013-06-16 08:53:00,71.7,63.4,30.05,South,183,0.0,3.0,75,0.00,,,0.00,Wunderground v.1.15,2013-06-16 13:53:00,
2013-06-16 08:58:00,71.8,63.8,30.05,West,259,0.0,3.0,76,0.00,,,0.00,Wunderground v.1.15,2013-06-16 13:58:00,
2013-06-16 09:03:00,72.0,63.6,30.05,SW,221,0.0,2.0,75,0.00,,,0.00,Wunderground v.1.15,2013-06-16 14:03:00,
2013-06-16 09:08:00,72.3,63.9,30.05,SE,137,0.0,2.0,75,0.00,,,0.00,Wunderground v.1.15,2013-06-16 14:08:00,
2013-06-16 09:14:00,72.5,64.5,30.05,SE,129,0.0,2.0,76,0.00,,,0.00,Wunderground v.1.15,2013-06-16 14:14:00,
2013-06-16 09:19:00,72.5,64.9,30.04,SSE,147,0.0,3.0,77,0.00,,,0.00,Wunderground v.1.15,2013-06-16 14:19:00,
2013-06-16 09:24:00,72.4,64.8,30.05,SSE,163,0.0,1.0,77,0.00,,,0.00,Wunderground v.1.15,2013-06-16 14:24:00,
2013-06-16 09:29:00,72.6,65.0,30.04,ESE,106,2.0,4.0,77,0.00,,,0.00,Wunderground v.1.15,2013-06-16 14:29:00,
2013-06-16 09:34:00,72.8,64.0,30.04,SW,217,0.0,2.0,74,0.00,,,0.00,Wunderground v.1.15,2013-06-16 14:34:00,
2013-06-16 09:39:00,72.9,64.5,30.04,South,173,0.0,2.0,75,0.00,,,0.00,Wunderground v.1.15,2013-06-16 14:39:00,
2013-06-16 09:44:00,72.9,64.1,30.04,ESE,117,0.0,1.0,74,0.00,,,0.00,Wunderground v.1.15,2013-06-16 14:44:00,
2013-06-16 09:49:00,73.1,64.7,30.04,South,178,3.0,4.0,75,0.00,,,0.00,Wunderground v.1.15,2013-06-16 14:49:00,
2013-06-16 09:54:00,73.4,65.0,30.04,WSW,248,1.0,3.0,75,0.00,,,0.00,Wunderground v.1.15,2013-06-16 14:54:00,
2013-06-16 09:59:00,73.7,64.9,30.04,WSW,238,3.0,3.0,74,0.00,,,0.00,Wunderground v.1.15,2013-06-16 14:59:00,
2013-06-16 10:04:00,73.9,65.5,30.04,ESE,117,0.0,4.0,75,0.00,,,0.00,Wunderground v.1.15,2013-06-16 15:04:00,
2013-06-16 10:09:00,73.6,65.9,30.03,SSW,194,2.0,4.0,77,0.00,,,0.00,Wunderground v.1.15,2013-06-16 15:09:00,
2013-06-16 10:14:00,73.6,64.8,30.03,SW,226,2.0,2.0,74,0.00,,,0.00,Wunderground v.1.15,2013-06-16 15:14:00,
2013-06-16 10:19:00,73.5,65.8,30.03,WNW,284,1.0,4.0,77,0.00,,,0.00,Wunderground v.1.15,2013-06-16 15:19:00,
2013-06-16 10:24:00,73.7,66.8,30.03,NW,308,0.0,2.0,79,0.00,,,0.00,Wunderground v.1.15,2013-06-16 15:24:00,
2013-06-16 10:29:00,73.6,64.8,30.03,West,274,2.0,5.0,74,0.00,,,0.00,Wunderground v.1.15,2013-06-16 15:29:00,
2013-06-16 10:34:00,73.6,65.6,30.03,NW,321,2.0,6.0,76,0.00,,,0.00,Wunderground v.1.15,2013-06-16 15:34:00,
2013-06-16 10:39:00,73.6,65.2,30.03,WNW,302,1.0,8.0,75,0.00,,,0.00,Wunderground v.1.15,2013-06-16 15:39:00,
2013-06-16 10:44:00,73.7,65.7,30.02,WSW,244,5.0,5.0,76,0.00,,,0.00,Wunderground v.1.15,2013-06-16 15:44:00,
2013-06-16 10:49:00,73.8,65.8,30.02,SW,223,0.0,5.0,76,0.00,,,0.00,Wunderground v.1.15,2013-06-16 15:49:00,
2013-06-16 10:54:00,74.2,65.0,30.02,South,191,1.0,6.0,73,0.00,,,0.00,Wunderground v.1.15,2013-06-16 15:54:00,
2013-06-16 10:59:00,74.5,64.5,30.02,East,101,3.0,8.0,71,0.00,,,0.00,Wunderground v.1.15,2013-06-16 15:59:00,
2013-06-16 11:04:00,74.6,63.8,30.02,West,263,2.0,12.0,69,0.00,,,0.00,Wunderground v.1.15,2013-06-16 16:04:00,
2013-06-16 11:09:00,74.7,63.9,30.02,WSW,238,5.0,12.0,69,0.00,,,0.00,Wunderground v.1.15,2013-06-16 16:09:00,
2013-06-16 11:14:00,74.4,64.0,30.02,SW,217,3.0,9.0,70,0.00,,,0.00,Wunderground v.1.15,2013-06-16 16:14:00,
2013-06-16 11:19:00,74.1,63.3,30.02,SW,232,8.0,12.0,69,0.00,,,0.00,Wunderground v.1.15,2013-06-16 16:19:00,
2013-06-16 11:24:00,74.0,63.6,30.02,WSW,254,4.0,11.0,70,0.00,,,0.00,Wunderground v.1.15,2013-06-16 16:24:00,
2013-06-16 11:29:00,74.1,63.3,30.02,West,266,6.0,12.0,69,0.00,,,0.00,Wunderground v.1.15,2013-06-16 16:29:00,
2013-06-16 11:34:00,74.2,64.2,30.02,SSW,194,4.0,13.0,71,0.00,,,0.00,Wunderground v.1.15,2013-06-16 16:34:00,
2013-06-16 11:39:00,74.2,64.2,30.02,SW,220,6.0,13.0,71,0.00,,,0.00,Wunderground v.1.15,2013-06-16 16:39:00,
2013-06-16 11:44:00,74.3,63.9,30.01,WSW,251,3.0,11.0,70,0.00,,,0.00,Wunderground v.1.15,2013-06-16 16:44:00,
2013-06-16 11:49:00,74.5,64.5,30.02,SW,226,10.0,16.0,71,0.00,,,0.00,Wunderground v.1.15,2013-06-16 16:49:00,
2013-06-16 11:54:00,74.6,64.2,30.01,SW,233,6.0,11.0,70,0.00,,,0.00,Wunderground v.1.15,2013-06-16 16:54:00,
2013-06-16 11:59:00,74.8,65.2,30.01,West,263,5.0,11.0,72,0.00,,,0.00,Wunderground v.1.15,2013-06-16 16:59:00,
2013-06-16 12:04:00,75.0,64.5,30.01,SW,226,6.0,10.0,70,0.00,,,0.00,Wunderground v.1.15,2013-06-16 17:04:00,
2013-06-16 12:10:00,75.1,64.6,30.01,West,263,3.0,13.0,70,0.00,,,0.00,Wunderground v.1.15,2013-06-16 17:10:00,
2013-06-16 12:15:00,75.3,64.8,30.01,SSW,207,2.0,14.0,70,0.00,,,0.00,Wunderground v.1.15,2013-06-16 17:15:00,
2013-06-16 12:20:00,75.2,65.1,30.01,West,267,6.0,14.0,71,0.00,,,0.00,Wunderground v.1.15,2013-06-16 17:20:00,
2013-06-16 12:25:00,75.3,64.8,30.01,West,265,6.0,11.0,70,0.00,,,0.00,Wunderground v.1.15,2013-06-16 17:25:00,
2013-06-16 12:30:00,75.4,65.3,30.00,SW,234,4.0,15.0,71,0.00,,,0.00,Wunderground v.1.15,2013-06-16 17:30:00,
2013-06-16 12:35:00,75.7,66.0,30.00,SW,229,9.0,13.0,72,0.00,,,0.00,Wunderground v.1.15,2013-06-16 17:35:00,
2013-06-16 12:40:00,75.8,64.9,30.00,SSW,206,5.0,6.0,69,0.00,,,0.00,Wunderground v.1.15,2013-06-16 17:40:00,
2013-06-16 12:45:00,76.0,65.9,30.00,SSW,204,3.0,10.0,71,0.00,,,0.00,Wunderground v.1.15,2013-06-16 17:45:00,
2013-06-16 12:50:00,76.4,65.9,30.00,SW,226,3.0,5.0,70,0.00,,,0.00,Wunderground v.1.15,2013-06-16 17:50:00,
2013-06-16 12:55:00,76.7,67.0,30.00,SW,223,7.0,11.0,72,0.00,,,0.00,Wunderground v.1.15,2013-06-16 17:55:00,
2013-06-16 13:00:00,76.5,65.6,30.00,SW,222,0.0,6.0,69,0.00,,,0.00,Wunderground v.1.15,2013-06-16 18:00:00,
2013-06-16 13:05:00,76.7,66.6,30.00,SW,230,10.0,11.0,71,0.00,,,0.00,Wunderground v.1.15,2013-06-16 18:05:00,
2013-06-16 13:10:00,77.1,67.4,30.00,SSW,208,5.0,8.0,72,0.00,,,0.00,Wunderground v.1.15,2013-06-16 18:10:00,
2013-06-16 13:15:00,77.1,66.6,30.00,SSW,194,2.0,11.0,70,0.00,,,0.00,Wunderground v.1.15,2013-06-16 18:15:00,
2013-06-16 13:20:00,77.2,66.2,29.99,WSW,239,3.0,5.0,69,0.00,,,0.00,Wunderground v.1.15,2013-06-16 18:20:00,
2013-06-16 13:25:00,77.6,67.0,29.99,SW,222,1.0,8.0,70,0.00,,,0.00,Wunderground v.1.15,2013-06-16 18:25:00,
2013-06-16 13:30:00,77.9,67.3,29.99,West,280,9.0,9.0,70,0.00,,,0.00,Wunderground v.1.15,2013-06-16 18:30:00,
2013-06-16 13:35:00,78.1,67.9,29.99,SSE,154,2.0,9.0,71,0.00,,,0.00,Wunderground v.1.15,2013-06-16 18:35:00,
2013-06-16 13:40:00,78.2,66.8,29.99,WSW,237,6.0,6.0,68,0.00,,,0.00,Wunderground v.1.15,2013-06-16 18:40:00,
2013-06-16 13:45:00,78.2,66.8,29.99,SSW,213,2.0,9.0,68,0.00,,,0.00,Wunderground v.1.15,2013-06-16 18:45:00,
2013-06-16 13:50:00,78.3,66.0,29.98,SW,227,3.0,5.0,66,0.00,,,0.00,Wunderground v.1.15,2013-06-16 18:50:00,
2013-06-16 13:55:00,78.5,66.2,29.98,SSW,213,6.0,11.0,66,0.00,,,0.00,Wunderground v.1.15,2013-06-16 18:55:00,
2013-06-16 14:00:00,78.7,66.8,29.98,West,265,0.0,4.0,67,0.00,,,0.00,Wunderground v.1.15,2013-06-16 19:00:00,
2013-06-16 14:05:00,78.7,65.5,29.98,West,267,2.0,12.0,64,0.00,,,0.00,Wunderground v.1.15,2013-06-16 19:05:00,
2013-06-16 14:10:00,79.1,65.0,29.97,SSW,199,0.0,4.0,62,0.00,,,0.00,Wunderground v.1.15,2013-06-16 19:10:00,
2013-06-16 14:15:00,80.0,67.2,29.97,West,260,0.0,7.0,65,0.00,,,0.00,Wunderground v.1.15,2013-06-16 19:15:00,
2013-06-16 14:20:00,80.0,65.8,29.97,WSW,244,9.0,9.0,62,0.00,,,0.00,Wunderground v.1.15,2013-06-16 19:20:00,
2013-06-16 14:25:00,79.8,66.1,29.97,SW,218,4.0,10.0,63,0.00,,,0.00,Wunderground v.1.15,2013-06-16 19:25:00,
2013-06-16 14:30:00,79.9,65.2,29.97,WSW,238,9.0,9.0,61,0.00,,,0.00,Wunderground v.1.15,2013-06-16 19:30:00,
2013-06-16 14:35:00,80.0,65.8,29.97,SW,234,4.0,9.0,62,0.00,,,0.00,Wunderground v.1.15,2013-06-16 19:35:00,
2013-06-16 14:40:00,80.4,67.6,29.97,SW,222,4.0,4.0,65,0.00,,,0.00,Wunderground v.1.15,2013-06-16 19:40:00,
2013-06-16 14:45:00,80.6,67.7,29.96,SW,227,6.0,9.0,65,0.00,,,0.00,Wunderground v.1.15,2013-06-16 19:45:00,
2013-06-16 14:50:00,80.5,66.7,29.96,WSW,248,7.0,9.0,63,0.00,,,0.00,Wunderground v.1.15,2013-06-16 19:50:00,
2013-06-16 14:55:00,79.6,67.2,29.96,WSW,246,3.0,9.0,66,0.00,,,0.00,Wunderground v.1.15,2013-06-16 19:55:00,
2013-06-16 15:00:00,78.9,67.9,29.97,SW,225,0.0,2.0,69,0.00,,,0.00,Wunderground v.1.15,2013-06-16 20:00:00,
2013-06-16 15:05:00,78.5,66.2,29.96,WSW,253,2.0,5.0,66,0.00,,,0.00,Wunderground v.1.15,2013-06-16 20:05:00,
2013-06-16 15:10:00,78.0,66.6,29.97,SW,214,2.0,5.0,68,0.00,,,0.00,Wunderground v.1.15,2013-06-16 20:10:00,
2013-06-16 15:15:00,77.5,66.5,29.97,SSE,166,2.0,6.0,69,0.00,,,0.00,Wunderground v.1.15,2013-06-16 20:15:00,
2013-06-16 15:20:00,77.3,66.7,29.97,SE,128,3.0,3.0,70,0.00,,,0.00,Wunderground v.1.15,2013-06-16 20:20:00,
2013-06-16 15:25:00,77.3,66.7,29.96,SSW,213,2.0,7.0,70,0.00,,,0.00,Wunderground v.1.15,2013-06-16 20:25:00,
2013-06-16 15:30:00,77.4,67.3,29.96,SSE,162,0.0,2.0,71,0.00,,,0.00,Wunderground v.1.15,2013-06-16 20:30:00,
2013-06-16 15:36:00,77.5,68.2,29.96,SSW,192,1.0,4.0,73,0.00,,,0.00,Wunderground v.1.15,2013-06-16 20:36:00,
2013-06-16 15:41:00,77.5,67.8,29.96,SE,124,1.0,2.0,72,0.00,,,0.00,Wunderground v.1.15,2013-06-16 20:41:00,
2013-06-16 15:46:00,77.6,68.3,29.95,SW,215,0.0,2.0,73,0.00,,,0.00,Wunderground v.1.15,2013-06-16 20:46:00,
2013-06-16 15:51:00,78.1,69.1,29.95,SSW,213,0.0,1.0,74,0.00,,,0.00,Wunderground v.1.15,2013-06-16 20:51:00,
2013-06-16 15:56:00,78.7,68.5,29.95,SE,126,0.0,4.0,71,0.00,,,0.00,Wunderground v.1.15,2013-06-16 20:56:00,
2013-06-16 16:04:00,79.3,69.5,29.95,SE,140,0.0,1.0,72,0.00,,,0.00,Wunderground v.1.15,2013-06-16 21:04:00,
2013-06-16 16:09:00,80.0,69.7,29.95,SW,217,1.0,1.0,71,0.00,,,0.00,Wunderground v.1.15,2013-06-16 21:09:00,
2013-06-16 16:14:00,80.8,70.1,29.95,SE,138,0.0,4.0,70,0.00,,,0.00,Wunderground v.1.15,2013-06-16 21:14:00,
2013-06-16 16:19:00,81.3,69.7,29.95,South,186,2.0,3.0,68,0.00,,,0.00,Wunderground v.1.15,2013-06-16 21:19:00,
2013-06-16 16:24:00,81.2,69.2,29.95,SSW,203,0.0,3.0,67,0.00,,,0.00,Wunderground v.1.15,2013-06-16 21:24:00,
2013-06-16 16:29:00,80.9,70.2,29.95,SSE,153,0.0,0.0,70,0.00,,,0.00,Wunderground v.1.15,2013-06-16 21:29:00,
2013-06-16 16:34:00,80.6,69.9,29.94,SSE,153,0.0,1.0,70,0.00,,,0.00,Wunderground v.1.15,2013-06-16 21:34:00,
2013-06-16 16:39:00,80.5,70.2,29.94,SE,138,0.0,1.0,71,0.00,,,0.00,Wunderground v.1.15,2013-06-16 21:39:00,
2013-06-16 16:44:00,80.2,69.5,29.94,WSW,251,0.0,2.0,70,0.00,,,0.00,Wunderground v.1.15,2013-06-16 21:44:00,
2013-06-16 16:49:00,80.5,69.8,29.94,SW,225,0.0,2.0,70,0.00,,,0.00,Wunderground v.1.15,2013-06-16 21:49:00,
2013-06-16 16:54:00,80.3,69.2,29.94,SW,225,0.0,2.0,69,0.00,,,0.00,Wunderground v.1.15,2013-06-16 21:54:00,
2013-06-16 16:59:00,80.1,69.8,29.94,SW,222,0.0,0.0,71,0.00,,,0.00,Wunderground v.1.15,2013-06-16 21:59:00,
2013-06-16 17:04:00,80.2,70.4,29.94,SW,222,0.0,1.0,72,0.00,,,0.00,Wunderground v.1.15,2013-06-16 22:04:00,
2013-06-16 17:09:00,80.1,69.4,29.94,SW,222,0.0,1.0,70,0.00,,,0.00,Wunderground v.1.15,2013-06-16 22:09:00,
2013-06-16 17:14:00,80.2,69.9,29.93,SW,222,0.0,0.0,71,0.00,,,0.00,Wunderground v.1.15,2013-06-16 22:14:00,
2013-06-16 17:19:00,80.3,70.0,29.93,SW,222,0.0,1.0,71,0.00,,,0.00,Wunderground v.1.15,2013-06-16 22:19:00,
2013-06-16 17:24:00,79.8,69.6,29.93,ESE,112,1.0,1.0,71,0.00,,,0.00,Wunderground v.1.15,2013-06-16 22:24:00,
2013-06-16 17:29:00,79.0,69.2,29.93,SE,129,0.0,1.0,72,0.00,,,0.00,Wunderground v.1.15,2013-06-16 22:29:00,
2013-06-16 17:34:00,78.2,69.2,29.93,SE,129,0.0,1.0,74,0.00,,,0.00,Wunderground v.1.15,2013-06-16 22:34:00,
2013-06-16 17:40:00,77.6,69.4,29.93,SE,129,0.0,1.0,76,0.00,,,0.00,Wunderground v.1.15,2013-06-16 22:40:00,
2013-06-16 17:45:00,77.1,69.3,29.93,SE,129,0.0,0.0,77,0.00,,,0.00,Wunderground v.1.15,2013-06-16 22:45:00,
2013-06-16 17:50:00,76.6,69.6,29.93,SE,129,0.0,1.0,79,0.00,,,0.00,Wunderground v.1.15,2013-06-16 22:50:00,
2013-06-16 17:55:00,76.1,69.1,29.92,SE,129,0.0,1.0,79,0.00,,,0.00,Wunderground v.1.15,2013-06-16 22:55:00,
2013-06-16 18:00:00,75.6,69.0,29.93,ESE,121,0.0,0.0,80,0.00,,,0.00,Wunderground v.1.15,2013-06-16 23:00:00,
2013-06-16 18:05:00,75.3,68.7,29.93,SE,137,0.0,2.0,80,0.00,,,0.00,Wunderground v.1.15,2013-06-16 23:05:00,
2013-06-16 18:10:00,75.0,68.8,29.93,SE,130,1.0,1.0,81,0.00,,,0.00,Wunderground v.1.15,2013-06-16 23:10:00,
2013-06-16 18:15:00,74.7,68.5,29.93,SE,132,0.0,3.0,81,0.00,,,0.00,Wunderground v.1.15,2013-06-16 23:15:00,
2013-06-16 18:20:00,74.4,68.5,29.93,SE,124,0.0,0.0,82,0.00,,,0.00,Wunderground v.1.15,2013-06-16 23:20:00,
2013-06-16 18:25:00,74.3,68.4,29.94,SW,218,1.0,4.0,82,0.00,,,0.00,Wunderground v.1.15,2013-06-16 23:25:00,
2013-06-16 18:30:00,74.2,68.3,29.94,SE,132,1.0,2.0,82,0.00,,,0.00,Wunderground v.1.15,2013-06-16 23:30:00,
2013-06-16 18:35:00,74.0,68.5,29.94,ESE,109,4.0,6.0,83,0.00,,,0.00,Wunderground v.1.15,2013-06-16 23:35:00,
2013-06-16 18:40:00,73.8,68.3,29.94,SSE,149,2.0,3.0,83,0.00,,,0.00,Wunderground v.1.15,2013-06-16 23:40:00,
2013-06-16 18:45:00,73.6,67.8,29.94,SSE,162,1.0,6.0,82,0.00,,,0.00,Wunderground v.1.15,2013-06-16 23:45:00,
2013-06-16 18:50:00,73.3,67.8,29.94,North,350,1.0,3.0,83,0.00,,,0.00,Wunderground v.1.15,2013-06-16 23:50:00,
2013-06-16 18:55:00,72.9,67.8,29.94,SSE,151,3.0,6.0,84,0.00,,,0.00,Wunderground v.1.15,2013-06-16 23:55:00,
2013-06-16 19:00:00,72.4,67.6,29.94,SE,126,3.0,4.0,85,0.00,,,0.00,Wunderground v.1.15,2013-06-17 00:00:00,
2013-06-16 19:05:00,72.0,67.6,29.94,West,272,2.0,7.0,86,0.00,,,0.00,Wunderground v.1.15,2013-06-17 00:05:00,
2013-06-16 19:10:00,72.1,67.7,29.94,SW,219,4.0,8.0,86,0.00,,,0.00,Wunderground v.1.15,2013-06-17 00:10:00,
2013-06-16 19:15:00,72.2,67.8,29.94,SW,234,3.0,8.0,86,0.00,,,0.00,Wunderground v.1.15,2013-06-17 00:15:00,
2013-06-16 19:20:00,72.0,67.9,29.95,SSW,201,4.0,6.0,87,0.00,,,0.00,Wunderground v.1.15,2013-06-17 00:20:00,
2013-06-16 19:25:00,71.8,68.4,29.94,SSW,199,3.0,9.0,89,0.00,,,0.00,Wunderground v.1.15,2013-06-17 00:25:00,
2013-06-16 19:30:00,71.5,68.1,29.95,SW,229,5.0,6.0,89,0.00,,,0.00,Wunderground v.1.15,2013-06-17 00:30:00,
2013-06-16 19:35:00,71.2,67.5,29.95,SSW,213,7.0,11.0,88,0.00,,,0.00,Wunderground v.1.15,2013-06-17 00:35:00,
2013-06-16 19:40:00,71.0,67.6,29.94,SW,215,3.0,6.0,89,0.00,,,0.00,Wunderground v.1.15,2013-06-17 00:40:00,
2013-06-16 19:45:00,70.8,67.4,29.94,SSW,193,6.0,9.0,89,0.00,,,0.00,Wunderground v.1.15,2013-06-17 00:45:00,
2013-06-16 19:50:00,70.9,67.5,29.94,SSW,197,4.0,6.0,89,0.00,,,0.00,Wunderground v.1.15,2013-06-17 00:50:00,
2013-06-16 19:55:00,70.8,66.7,29.93,SE,134,5.0,11.0,87,0.00,,,0.00,Wunderground v.1.15,2013-06-17 00:55:00,
2013-06-16 20:00:00,70.9,66.8,29.94,SE,127,3.0,13.0,87,0.00,,,0.00,Wunderground v.1.15,2013-06-17 01:00:00,
2013-06-16 20:06:00,71.1,67.0,29.94,East,93,3.0,14.0,87,0.00,,,0.00,Wunderground v.1.15,2013-06-17 01:06:00,
2013-06-16 20:11:00,71.2,66.8,29.94,South,180,7.0,7.0,86,0.00,,,0.00,Wunderground v.1.15,2013-06-17 01:11:00,
2013-06-16 20:16:00,71.1,66.7,29.95,SE,126,1.0,8.0,86,0.00,,,0.00,Wunderground v.1.15,2013-06-17 01:16:00,
2013-06-16 20:21:00,71.0,66.6,29.95,ESE,119,1.0,4.0,86,0.00,,,0.00,Wunderground v.1.15,2013-06-17 01:21:00,
2013-06-16 20:26:00,70.7,66.6,29.96,SSE,165,3.0,4.0,87,0.00,,,0.00,Wunderground v.1.15,2013-06-17 01:26:00,
2013-06-16 20:31:00,70.4,66.7,29.96,NE,41,4.0,5.0,88,0.00,,,0.00,Wunderground v.1.15,2013-06-17 01:31:00,
2013-06-16 20:36:00,70.0,66.6,29.97,SE,126,1.0,5.0,89,0.00,,,0.00,Wunderground v.1.15,2013-06-17 01:36:00,
2013-06-16 20:41:00,69.8,66.7,29.97,SSW,195,1.0,3.0,90,0.00,,,0.00,Wunderground v.1.15,2013-06-17 01:41:00,
2013-06-16 20:46:00,69.5,66.1,29.97,ESE,119,1.0,5.0,89,0.00,,,0.00,Wunderground v.1.15,2013-06-17 01:46:00,
2013-06-16 20:51:00,69.4,66.3,29.97,SSW,198,3.0,6.0,90,0.00,,,0.00,Wunderground v.1.15,2013-06-17 01:51:00,
2013-06-16 20:56:00,69.2,66.1,29.97,South,182,0.0,6.0,90,0.00,,,0.00,Wunderground v.1.15,2013-06-17 01:56:00,
2013-06-16 21:01:00,69.0,65.9,29.97,East,93,0.0,5.0,90,0.00,,,0.00,Wunderground v.1.15,2013-06-17 02:01:00,
2013-06-16 21:06:00,68.8,65.4,29.97,South,169,2.0,5.0,89,0.00,,,0.00,Wunderground v.1.15,2013-06-17 02:06:00,
2013-06-16 21:11:00,68.7,65.6,29.97,SE,127,0.0,6.0,90,0.00,,,0.00,Wunderground v.1.15,2013-06-17 02:11:00,
2013-06-16 21:16:00,68.6,65.5,29.97,South,171,0.0,6.0,90,0.00,,,0.00,Wunderground v.1.15,2013-06-17 02:16:00,
2013-06-16 21:21:00,68.5,65.8,29.96,ESE,119,1.0,5.0,91,0.00,,,0.00,Wunderground v.1.15,2013-06-17 02:21:00,
2013-06-16 21:26:00,68.5,65.8,29.96,WNW,302,1.0,5.0,91,0.00,,,0.00,Wunderground v.1.15,2013-06-17 02:26:00,
2013-06-16 21:31:00,68.4,65.7,29.96,SW,224,0.0,2.0,91,0.00,,,0.00,Wunderground v.1.15,2013-06-17 02:31:00,
2013-06-16 21:37:00,68.3,65.6,29.96,SSW,206,0.0,5.0,91,0.00,,,0.00,Wunderground v.1.15,2013-06-17 02:37:00,
2013-06-16 21:42:00,68.3,65.6,29.96,ESE,121,0.0,1.0,91,0.00,,,0.00,Wunderground v.1.15,2013-06-17 02:42:00,
2013-06-16 21:47:00,68.2,65.5,29.96,WSW,239,2.0,3.0,91,0.00,,,0.00,Wunderground v.1.15,2013-06-17 02:47:00,
2013-06-16 21:52:00,68.1,65.4,29.96,SSW,192,1.0,3.0,91,0.00,,,0.00,Wunderground v.1.15,2013-06-17 02:52:00,
2013-06-16 21:57:00,68.1,65.4,29.96,SSE,153,6.0,7.0,91,0.00,,,0.00,Wunderground v.1.15,2013-06-17 02:57:00,
2013-06-16 22:02:00,68.0,65.3,29.96,SE,140,0.0,2.0,91,0.00,,,0.00,Wunderground v.1.15,2013-06-17 03:02:00,
2013-06-16 22:07:00,68.0,65.3,29.97,South,181,0.0,2.0,91,0.00,,,0.00,Wunderground v.1.15,2013-06-17 03:07:00,
2013-06-16 22:12:00,67.9,65.2,29.97,SW,235,0.0,3.0,91,0.00,,,0.00,Wunderground v.1.15,2013-06-17 03:12:00,
2013-06-16 22:17:00,67.8,65.4,29.97,SE,124,1.0,5.0,92,0.00,,,0.00,Wunderground v.1.15,2013-06-17 03:17:00,
2013-06-16 22:22:00,67.6,65.2,29.96,SSE,163,1.0,6.0,92,0.00,,,0.00,Wunderground v.1.15,2013-06-17 03:22:00,
2013-06-16 22:27:00,67.6,65.2,29.96,SE,124,1.0,8.0,92,0.00,,,0.00,Wunderground v.1.15,2013-06-17 03:27:00,
2013-06-16 22:32:00,67.5,65.1,29.96,WSW,245,1.0,3.0,92,0.00,,,0.00,Wunderground v.1.15,2013-06-17 03:32:00,
2013-06-16 22:37:00,67.4,65.0,29.96,WSW,256,0.0,4.0,92,0.00,,,0.00,Wunderground v.1.15,2013-06-17 03:37:00,
2013-06-16 22:42:00,67.5,64.8,29.96,WSW,256,2.0,4.0,91,0.00,,,0.00,Wunderground v.1.15,2013-06-17 03:42:00,
2013-06-16 22:47:00,67.6,64.9,29.97,NNE,19,0.0,4.0,91,0.00,,,0.00,Wunderground v.1.15,2013-06-17 03:47:00,
2013-06-16 22:52:00,67.6,64.9,29.96,ESE,111,0.0,1.0,91,0.00,,,0.00,Wunderground v.1.15,2013-06-17 03:52:00,
2013-06-16 22:57:00,67.6,65.2,29.96,SE,141,0.0,3.0,92,0.00,,,0.00,Wunderground v.1.15,2013-06-17 03:57:00,
2013-06-16 23:01:00,67.5,65.1,29.96,SE,129,1.0,3.0,92,0.00,,,0.00,Wunderground v.1.15,2013-06-17 04:01:00,
2013-06-16 23:02:00,67.5,65.1,29.96,SE,129,1.0,3.0,92,0.00,,,0.00,Wunderground v.1.15,2013-06-17 04:02:00,
2013-06-16 23:07:00,67.4,65.0,29.95,SE,129,0.0,3.0,92,0.00,,,0.00,Wunderground v.1.15,2013-06-17 04:07:00,
2013-06-16 23:12:00,67.4,65.0,29.95,South,172,1.0,4.0,92,0.00,,,0.00,Wunderground v.1.15,2013-06-17 04:12:00,
2013-06-16 23:17:00,67.3,65.2,29.95,South,177,2.0,4.0,93,0.00,,,0.00,Wunderground v.1.15,2013-06-17 04:17:00,
2013-06-16 23:22:00,67.2,64.8,29.95,WSW,246,2.0,6.0,92,0.00,,,0.00,Wunderground v.1.15,2013-06-17 04:22:00,
2013-06-16 23:27:00,67.5,64.8,29.95,SW,231,1.0,6.0,91,0.00,,,0.00,Wunderground v.1.15,2013-06-17 04:27:00,
2013-06-16 23:32:00,67.6,64.9,29.95,SW,231,0.0,1.0,91,0.00,,,0.00,Wunderground v.1.15,2013-06-17 04:32:00,
2013-06-16 23:37:00,67.7,65.0,29.95,SSW,211,0.0,1.0,91,0.00,,,0.00,Wunderground v.1.15,2013-06-17 04:37:00,
2013-06-16 23:42:00,67.6,65.2,29.95,ESE,117,3.0,3.0,92,0.00,,,0.00,Wunderground v.1.15,2013-06-17 04:42:00,
2013-06-16 23:47:00,67.4,65.0,29.95,SW,228,3.0,6.0,92,0.00,,,0.00,Wunderground v.1.15,2013-06-17 04:47:00,
2013-06-16 23:52:00,67.3,64.6,29.95,SW,231,0.0,3.0,91,0.00,,,0.00,Wunderground v.1.15,2013-06-17 04:52:00,
2013-06-16 23:57:00,67.4,65.0,29.95,South,173,1.0,3.0,92,0.00,,,0.00,Wunderground v.1.15,2013-06-17 04:57:00,